Regional Weather Roundup
Issued by NWS

Home | Current Version | Previous Version | Graphics & Text | Print | Product List | Glossary On
Versions: 1 2 3 4 5 6 7 8 9 10 11 12 13 14 15 16 17 18 19 20 21 22 23 24 25 26 27 28 29 30 31 32 33 34 35 36 37 38 39 40 41 42 43 44 45 46 47 48 49 50
000
ASUS43 KLOT 200409
RWRIL

ILLINOIS REGIONAL WEATHER ROUNDUP
NATIONAL WEATHER SERVICE CHICAGO/ROMEOVILLE IL
1000 PM CST FRI JAN 19 2018

NOTE: "FAIR" INDICATES FEW OR NO CLOUDS BELOW 12,000 FEET WITH NO
SIGNIFICANT WEATHER AND/OR OBSTRUCTIONS TO VISIBILITY.

* THESE STATIONS ARE NOT UNDER NWS QUALITY CONTROL. THEY ALSO MAY NOT
  REPORT WEATHER SUCH AS PRECIPITATION OR FOG.

ILZ001-002-007-009-015-016-024-200500-
NORTHWEST ILLINOIS

CITY           SKY/WX    TMP DP  RH WIND       PRES   REMARKS
MOLINE         FAIR      41  28  60 SW10      29.77R
STERLING*      FAIR      39  29  67 SW9       29.78R WCI  33
SAVANNA*       FAIR      37  29  71 S7        29.77R WCI  32
$$

ILZ003-004-008-010-011-017-018-200500-
NORTH CENTRAL ILLINOIS

CITY           SKY/WX    TMP DP  RH WIND       PRES   REMARKS
ROCKFORD       CLOUDY    41  28  60 SW10G21   29.77R
FREEPORT*      FAIR      37  29  75 SW7       29.76R WCI  31
ROCHELLE*      FAIR      37  30  76 SW10      29.78R WCI  29
DE KALB*       FAIR      36  29  78 SW13      29.77R WCI  27
PERU*          FAIR      42  26  52 SW13      29.80R
$$

ILZ005-006-012>014-019>023-200500-
NORTHEAST ILLINOIS

CITY           SKY/WX    TMP DP  RH WIND       PRES   REMARKS
CHICAGO-OHARE  CLOUDY    40  28  62 SW20G28   29.74R
CHICAGO-MIDWAY CLOUDY    39  29  67 SW16G25   29.78R WCI  30
AURORA         FAIR      38  29  70 S14       29.79R WCI  30
LANSING*       FAIR      36  30  78 SW20G25   29.81R WCI  25
JOLIET*        FAIR      39  30  70 SW7       29.81R WCI  34
WAUKEGAN       FAIR      42  27  55 SW15G23   29.72R
DUPAGE AIRPORT FAIR      38  29  70 SW17      29.77R WCI  28
KANKAKEE*      FAIR     N/A N/A N/A SW15G22   29.84S
WHEELING       FAIR      41  29  62 SW14G23   29.76R
MORRIS*        FAIR      37  29  72 SW13      29.80R WCI  29
ROMEOVILLE*    FAIR      37  29  74 SW13      29.81R WCI  28
NORTHERLY ISL    N/A     39  27  62 SW7         N/A  WCI  34
$$

LMZ740>746-200500-
SOUTHERN LAKE MICHIGAN

STATION/POSITION SKY/WX   TEMP    WIND        PRES    VSBY  WAVE
                          AIR SEA DIR/SP/G                  HT/PER
                          (F)     (DEG/KT/KT) (MB)    (MI)  (FT/S)
HARRISON CRIB              41     220/ 36/ 42   N/A
BURNHAM HARBOR             39     270/ 10/ 14   N/A
CALUMET HARBOR             38     200/ 18/ 23 1007.7R
BURNS HARBOR               37     200/ 22/ 33 1008.8R
MICHIGAN CITY              37     190/ 20/ 23   N/A
$$

ILZ025>027-034>036-040-047-049-050-058-095>099-200500-
WEST-CENTRAL ILLINOIS

CITY           SKY/WX    TMP DP  RH WIND       PRES   REMARKS
QUINCY         CLOUDY    43  26  51 SW15      29.84R
GALESBURG*     FAIR      40  31  69 S14G20    29.81R
MACOMB*        CLOUDY    42  29  58 SW14      29.84R
JACKSONVILLE*  CLOUDY    42  24  49 S13       29.86S
PITTSFIELD*    PTCLDY    44  27  50 SW12      29.87R
$$

ILZ028>032-037-038-041>044-048-051>054-059>061-200500-
CENTRAL ILLINOIS

CITY           SKY/WX    TMP DP  RH WIND       PRES   REMARKS
PONTIAC        FAIR      38  31  76 S18       29.83R WCI  28
BLOOMINGTON    FAIR      36  27  69 S21       29.84R WCI  24
DECATUR        FAIR      35  29  78 SW20G25   29.90R WCI  24
PEORIA         FAIR      38  27  64 S14       29.83R WCI  30
LACON*         FAIR      40  27  57 SW15G23   29.79R
LINCOLN*       FAIR      37  29  73 S14       29.87R WCI  28
SPRINGFIELD    FAIR      39  27  62 S17       29.88R WCI  30
TAYLORVILLE    FAIR      34  28  78 S15       29.91R WCI  24
$$

ILZ033-039-045-046-055>057-062-063-200500-
EAST-CENTRAL ILLINOIS

CITY           SKY/WX    TMP DP  RH WIND       PRES   REMARKS
CHAMPAIGN      FAIR      33  27  78 S20       29.90R WCI  21
DANVILLE*      FAIR      33  24  69 S21G29    29.87S WCI  21
RANTOUL*       FAIR      35  30  80 S12       29.88F WCI  27
MATTOON        FAIR      33  25  72 S13       29.93R WCI  24
PARIS*         FAIR      33  25  72 S15G22    29.94F WCI  23
$$

ILZ079-100>102-200500-
SOUTHWEST ILLINOIS

CITY           SKY/WX    TMP DP  RH WIND       PRES   REMARKS
ALTON          CLEAR     37  27  65 S12       29.94S WCI  30
BELLEVILLE     FAIR      34  27  74 SW10      29.95S WCI  26
CAHOKIA*       FAIR      37  25  61 S7        29.94F WCI  32
SPARTA*        FAIR      34  28  76 S10G17    29.99S WCI  26
$$

ILZ064>066-069>071-074>076-080>082-084>086-088>090-092>094-200500-
SOUTH-CENTRAL ILLINOIS

CITY           SKY/WX    TMP DP  RH WIND       PRES   REMARKS
CARBONDALE     FAIR      35  24  64 S17G24    30.03S WCI  25
CAIRO*         FAIR      35  22  57 S7        30.10S WCI  29
EFFINGHAM*     FAIR      35  27  73 S9        29.98R WCI  28
MARION         FAIR      35  20  54 SW14      30.04S WCI  26
MT. VERNON     FAIR      34  24  67 SW16      30.00F WCI  24
CENTRALIA*     FAIR      35  28  75 S14       29.97F WCI  26
SALEM*         FAIR      36  27  68 S13       29.97S WCI  28
METROPOLIS*    FAIR      38  21  50 S9        30.10R WCI  31
$$

ILZ067-068-072-073-078-083-087-091-200500-
SOUTHEAST ILLINOIS

CITY           SKY/WX    TMP DP  RH WIND       PRES   REMARKS
LAWRENCEVILLE  FAIR      31  20  63 S9        30.02S WCI  23
FLORA*         FAIR      35  25  65 S10       29.99S WCI  28
FAIRFIELD*     FAIR      34  22  61 S8        30.00F WCI  28
HARRISBURG*    FAIR      36  23  59 SW12      30.04F WCI  28
ROBINSON*      FAIR      34  22  60 S13       30.00F WCI  25
CARMI*         FAIR      34  22  62 S12       30.03F WCI  25
$$

ABBREVIATIONS USED IN REMARKS
   TC - TEMPERATURE IN CELSIUS
  WCI - WIND CHILL INDEX
   HX - HEAT INDEX
  VSB - VISIBILITY
$$





USA.gov is the U.S. government's official web portal to all federal, state and local government web resources and services.